When you browse on this site, cookies collect data to enhance your experience and personalize the content and advertising you see.
Visit our Privacy Policy to learn more. By continuing to use the site, you agree to this use of cookies and data.
  • In Hungary
  • List of Countries
  • For 7 days
  • Water Temperature
  • Weather Map
  • News
  • Weather Widgets
  • user-avatar
    Login

    Hourly Weather Zottegem

    Today, 11 December, Wednesday

    Time Temperature Precipitation Wind Pressure Humidity
    00:00 +5°C° 0 mm 9 mps 753 mmHg 76%
    01:00 +5°C° 0.2 mm 8 mps 753 mmHg 80%
    02:00 +5°C° 0.2 mm 7 mps 752 mmHg 84%
    03:00 +5°C° 0.2 mm 6 mps 752 mmHg 88%
    04:00 +6°C° 0.2 mm 5 mps 752 mmHg 90%
    05:00 +5°C° 0.2 mm 4 mps 752 mmHg 91%
    06:00 +5°C° 0 mm 4 mps 752 mmHg 89%
    07:00 +5°C° 0.1 mm 4 mps 751 mmHg 89%
    08:00 +5°C° 0.1 mm 3 mps 751 mmHg 89%
    09:00 +5°C° 0.1 mm 3 mps 751 mmHg 88%
    10:00 +7°C° 0 mm 3 mps 750 mmHg 84%
    11:00 +7°C° 0 mm 3 mps 750 mmHg 80%
    12:00 +8°C° 0 mm 3 mps 749 mmHg 76%
    13:00 +7°C° 0 mm 3 mps 749 mmHg 77%
    14:00 +7°C° 0 mm 3 mps 748 mmHg 78%
    15:00 +7°C° 0 mm 3 mps 748 mmHg 79%
    16:00 +5°C° 0 mm 4 mps 748 mmHg 80%
    17:00 +5°C° 0 mm 4 mps 748 mmHg 81%
    18:00 +5°C° 0 mm 4 mps 747 mmHg 82%
    19:00 +4°C° 0 mm 4 mps 747 mmHg 82%
    20:00 +3°C° 0 mm 5 mps 747 mmHg 83%
    21:00 +3°C° 0 mm 5 mps 747 mmHg 83%
    22:00 +3°C° 0 mm 5 mps 747 mmHg 85%
    23:00 +3°C° 0 mm 5 mps 747 mmHg 87%

    Tomorrow, 12 December, Thursday

    Time Temperature Precipitation Wind Pressure Humidity
    00:00 +3°C° 0 mm 4 mps 747 mmHg 89%
    01:00 +3°C° 0 mm 4 mps 747 mmHg 90%
    02:00 +1°C° 0 mm 4 mps 747 mmHg 90%
    03:00 +1°C° 0 mm 4 mps 746 mmHg 91%
    04:00 +1°C° 0 mm 4 mps 747 mmHg 90%
    05:00 0°C° 0 mm 4 mps 747 mmHg 90%
    06:00 0°C° 0 mm 4 mps 747 mmHg 89%
    07:00 0°C° 0 mm 4 mps 747 mmHg 88%
    08:00 0°C° 0 mm 4 mps 746 mmHg 87%
    09:00 0°C° 0 mm 4 mps 746 mmHg 85%
    10:00 +1°C° 0 mm 5 mps 746 mmHg 82%
    11:00 +2°C° 0 mm 6 mps 745 mmHg 78%
    12:00 +3°C° 0 mm 6 mps 745 mmHg 74%
    13:00 +3°C° 0 mm 7 mps 743 mmHg 74%
    14:00 +3°C° 0 mm 7 mps 742 mmHg 74%
    15:00 +3°C° 0 mm 7 mps 740 mmHg 74%
    16:00 +2°C° 0 mm 8 mps 739 mmHg 75%
    17:00 +2°C° 0 mm 9 mps 737 mmHg 77%
    18:00 +2°C° 0 mm 10 mps 736 mmHg 79%
    19:00 +2°C° 1 mm 11 mps 734 mmHg 81%
    20:00 +2°C° 1 mm 11 mps 733 mmHg 84%
    21:00 +3°C° 1 mm 12 mps 731 mmHg 86%
    22:00 +3°C° 0.4 mm 10 mps 730 mmHg 88%
    23:00 +4°C° 0.4 mm 8 mps 729 mmHg 89%

    Day after tomorrow, 13 December, Friday

    Time Temperature Precipitation Wind Pressure Humidity
    00:00 +5°C° 0.4 mm 6 mps 728 mmHg 91%
    01:00 +5°C° 1.7 mm 6 mps 727 mmHg 90%
    02:00 +5°C° 1.7 mm 6 mps 726 mmHg 90%
    03:00 +6°C° 1.7 mm 5 mps 725 mmHg 89%
    04:00 +4°C° 0.9 mm 6 mps 725 mmHg 87%
    05:00 +4°C° 0.9 mm 7 mps 725 mmHg 86%
    06:00 +4°C° 0.9 mm 8 mps 725 mmHg 84%
    07:00 +4°C° 0.1 mm 8 mps 725 mmHg 83%
    08:00 +3°C° 0.1 mm 7 mps 726 mmHg 82%
    09:00 +3°C° 0.1 mm 7 mps 727 mmHg 81%
    10:00 +4°C° 0.5 mm 7 mps 728 mmHg 82%
    11:00 +4°C° 0.5 mm 8 mps 729 mmHg 84%
    12:00 +4°C° 0.5 mm 8 mps 730 mmHg 85%
    13:00 +4°C° 0.6 mm 8 mps 731 mmHg 82%
    14:00 +5°C° 0.6 mm 7 mps 732 mmHg 79%
    15:00 +5°C° 0.6 mm 7 mps 732 mmHg 75%
    16:00 +5°C° 0 mm 7 mps 733 mmHg 77%
    17:00 +4°C° 0 mm 6 mps 734 mmHg 79%
    18:00 +4°C° 0 mm 6 mps 735 mmHg 81%
    19:00 +4°C° 0.1 mm 6 mps 736 mmHg 80%
    20:00 +5°C° 0.1 mm 6 mps 737 mmHg 78%
    21:00 +5°C° 0.1 mm 6 mps 737 mmHg 77%
    22:00 +4°C° 0 mm 6 mps 737 mmHg 79%
    23:00 +4°C° 0 mm 6 mps 738 mmHg 80%

    14 December, Saturday

    Time Temperature Precipitation Wind Pressure Humidity
    00:00 +3°C° 0 mm 5 mps 738 mmHg 82%
    01:00 +4°C° 0.2 mm 7 mps 737 mmHg 83%
    02:00 +4°C° 0.2 mm 8 mps 736 mmHg 85%
    03:00 +3°C° 0.2 mm 10 mps 735 mmHg 86%
    04:00 +5°C° 0.1 mm 9 mps 736 mmHg 80%
    05:00 +5°C° 0.1 mm 9 mps 736 mmHg 75%
    06:00 +5°C° 0.1 mm 8 mps 736 mmHg 69%
    07:00 +5°C° 0 mm 9 mps 737 mmHg 67%
    08:00 +5°C° 0 mm 9 mps 738 mmHg 65%
    09:00 +5°C° 0 mm 10 mps 739 mmHg 63%
    10:00 +5°C° 0 mm 9 mps 740 mmHg 61%
    11:00 +6°C° 0 mm 9 mps 740 mmHg 58%
    12:00 +6°C° 0 mm 9 mps 741 mmHg 55%
    13:00 +5°C° 0.4 mm 7 mps 741 mmHg 65%
    14:00 +5°C° 0.4 mm 6 mps 741 mmHg 75%
    15:00 +5°C° 0.4 mm 4 mps 741 mmHg 85%
    16:00 +5°C° 0.9 mm 4 mps 741 mmHg 86%
    17:00 +5°C° 0.9 mm 4 mps 742 mmHg 87%
    18:00 +4°C° 0.9 mm 4 mps 742 mmHg 88%
    19:00 +4°C° 0.1 mm 4 mps 743 mmHg 87%
    20:00 +4°C° 0.1 mm 4 mps 743 mmHg 86%
    21:00 +3°C° 0.1 mm 5 mps 744 mmHg 85%
    22:00 +4°C° 0.1 mm 4 mps 744 mmHg 86%
    23:00 +3°C° 0.1 mm 4 mps 744 mmHg 86%

    15 December, Sunday

    Time Temperature Precipitation Wind Pressure Humidity
    00:00 +3°C° 0.1 mm 3 mps 744 mmHg 87%
    01:00 +3°C° 0 mm 4 mps 743 mmHg 88%
    02:00 +3°C° 0 mm 5 mps 743 mmHg 88%
    03:00 +3°C° 0 mm 6 mps 742 mmHg 89%
    04:00 +3°C° 0.6 mm 7 mps 741 mmHg 86%
    05:00 +3°C° 0.6 mm 9 mps 741 mmHg 83%
    06:00 +3°C° 0.6 mm 10 mps 740 mmHg 80%
    07:00 +3°C° 0 mm 11 mps 741 mmHg 73%
    08:00 +3°C° 0 mm 12 mps 741 mmHg 66%
    09:00 +3°C° 0 mm 13 mps 742 mmHg 59%
    10:00 +3°C° 0 mm 12 mps 744 mmHg 57%
    11:00 +4°C° 0 mm 12 mps 745 mmHg 56%
    12:00 +4°C° 0 mm 11 mps 747 mmHg 54%
    13:00 +3°C° 0 mm 9 mps 748 mmHg 58%
    14:00 +4°C° 0 mm 7 mps 749 mmHg 62%
    15:00 +5°C° 0 mm 4 mps 750 mmHg 65%
    16:00 +3°C° 0 mm 5 mps 750 mmHg 68%
    17:00 +3°C° 0 mm 5 mps 750 mmHg 71%
    18:00 +3°C° 0 mm 6 mps 751 mmHg 73%
    19:00 +3°C° 0 mm 6 mps 751 mmHg 74%
    20:00 +3°C° 0 mm 6 mps 751 mmHg 75%
    21:00 +3°C° 0 mm 6 mps 751 mmHg 75%
    22:00 +3°C° 0 mm 6 mps 750 mmHg 77%
    23:00 +3°C° 0 mm 6 mps 750 mmHg 80%

    16 December, Monday

    Time Temperature Precipitation Wind Pressure Humidity
    00:00 +3°C° 0 mm 7 mps 750 mmHg 82%
    01:00 +3°C° 0 mm 6 mps 750 mmHg 83%
    02:00 +3°C° 0 mm 5 mps 750 mmHg 85%
    03:00 +3°C° 0 mm 5 mps 750 mmHg 86%
    04:00 +3°C° 0 mm 5 mps 750 mmHg 87%
    05:00 +4°C° 0 mm 4 mps 750 mmHg 88%
    06:00 +4°C° 0 mm 4 mps 750 mmHg 89%
    07:00 +4°C° 0 mm 4 mps 750 mmHg 87%
    08:00 +4°C° 0 mm 4 mps 750 mmHg 86%
    09:00 +5°C° 0 mm 4 mps 750 mmHg 84%
    10:00 +5°C° 0 mm 4 mps 749 mmHg 82%
    11:00 +6°C° 0 mm 4 mps 749 mmHg 80%
    12:00 +6°C° 0 mm 5 mps 749 mmHg 78%
    13:00 +6°C° 0.2 mm 4 mps 748 mmHg 82%
    14:00 +7°C° 0.2 mm 3 mps 748 mmHg 86%
    15:00 +5°C° 0.2 mm 3 mps 747 mmHg 90%
    16:00 +5°C° 0.2 mm 3 mps 747 mmHg 91%
    17:00 +5°C° 0.2 mm 3 mps 747 mmHg 93%
    18:00 +5°C° 0.2 mm 3 mps 746 mmHg 94%
    19:00 +6°C° 0.2 mm 2 mps 746 mmHg 95%
    20:00 +7°C° 0.2 mm 1 mps 746 mmHg 96%
    21:00 +7°C° 0.2 mm 1 mps 746 mmHg 96%
    22:00 +7°C° 0.8 mm 1 mps 745 mmHg 97%
    23:00 +7°C° 0.8 mm 1 mps 745 mmHg 97%
    Show more